This is the latest recevied weather packets stored in our database for station/object NA9VY-8. If no packets are shown the sender has not sent any weather packets the latest 10 day(s).
| Time | Temp. | Humidity | Pressure | Rain* | Wind** | Luminosity | Snow |
|---|---|---|---|---|---|---|---|
| 1777433744 | 16.67° C | 88% | 1015.5 hPa | 0 mm | - | 0 W/m² | - |
| 1777433441 | 16.67° C | 88% | 1015.8 hPa | 0 mm | - | 0 W/m² | - |
| 1777433141 | 16.67° C | 88% | 1015.7 hPa | 0 mm | - | 0 W/m² | - |
| 1777432838 | 16.67° C | 89% | 1015.6 hPa | 0 mm | - | 0 W/m² | - |
| 1777432533 | 16.11° C | 90% | 1015.6 hPa | 0 mm | - | 0 W/m² | - |
| 1777432230 | 16.11° C | 92% | 1015.3 hPa | 0 mm | - | 0 W/m² | - |
| 1777431928 | 16.11° C | 94% | 1015 hPa | 0 mm | - | 0 W/m² | - |
| 1777431626 | 16.11° C | 94% | 1015 hPa | 0 mm | - | 0 W/m² | - |
| 1777431321 | 16.67° C | 93% | 1014.7 hPa | 0 mm | - | 0 W/m² | - |
| 1777431017 | 16.67° C | 90% | 1014.5 hPa | 0 mm | - | 0 W/m² | - |
| 1777430714 | 16.11° C | 93% | 1014.4 hPa | 0 mm | - | 0 W/m² | - |
| 1777430409 | 15.56° C | 95% | 1014.1 hPa | 0 mm | - | 0 W/m² | - |
| 1777430105 | 16.11° C | 96% | 1014.7 hPa | 0 mm | - | 0 W/m² | - |
| 1777429800 | 15.56° C | 95% | 1014.9 hPa | 0 mm | - | 0 W/m² | - |
| 1777429496 | 15.56° C | 95% | 1015.1 hPa | 0 mm | - | 0 W/m² | - |
| 1777429193 | 16.11° C | 95% | 1015.4 hPa | 0 mm | - | 0 W/m² | - |
| 1777428889 | 16.11° C | 94% | 1015.5 hPa | 0 mm | - | 0 W/m² | - |
| 1777428585 | 16.11° C | 94% | 1015.7 hPa | 0 mm | - | 0 W/m² | - |
| 1777428281 | 16.11° C | 94% | 1015.9 hPa | 0 mm | - | 0 W/m² | - |
| 1777427976 | 16.11° C | 94% | 1015.9 hPa | 0 mm | - | 0 W/m² | - |
| 1777427673 | 16.11° C | 93% | 1015.9 hPa | 0 mm | - | 0 W/m² | - |
| 1777427370 | 16.11° C | 92% | 1016 hPa | 0 mm | - | 0 W/m² | - |
| 1777427066 | 16.11° C | 93% | 1016.1 hPa | 0 mm | - | 0 W/m² | - |
| 1777426764 | 16.67° C | 93% | 1015.9 hPa | 0 mm | - | 0 W/m² | - |
| 1777426461 | 16.11° C | 90% | 1015.8 hPa | 0 mm | - | 0 W/m² | - |
* Rain latest hour (hover to see other rain measurements)
** Current wind speed in m/s (hover to see current wind gust speed)